Tracking 19279 objects as of 14-Nov-2018
HD Live streaming from Space Station
objects crossing your sky now

GGSE 5

Track GGSE 5 now!
10-day predictions
GGSE 5 is classified as:


NORAD ID: 2834
Int'l Code: 1967-053D
Perigee: 908.9 km
Apogee: 922.2 km
Inclination: 70.0 °
Period: 103.2 minutes
Semi major axis: 7286 km
RCS: 0.7606 m2 (medium)
Launch date: May 31, 1967
Source: United States (US)
Launch site: AIR FORCE WESTERN TEST RANGE (AFWTR)
aabbcc
Your satellite tracking list
Your tracking list is empty




NASA's NSSDC Master Catalog

Two Line Element Set (TLE):
1  2834U 67053D   18317.46721185 -.00000014  00000-0  28421-4 0  9999
2  2834  69.9721 307.5830 0009128 221.7301 138.3109 13.95799621619783
Source of the keplerian elements: AFSPC